Regional Weather Roundup
Issued by NWS New Orleans/Baton Rouge, LA

Home | Current Version | Previous Version | Text Only | Print | Product List | Glossary On
Versions: 1 2 3 4 5 6 7 8 9 10 11 12 13 14 15 16 17 18 19 20 21 22 23 24 25 26 27 28 29 30 31 32 33 34 35 36 37 38 39 40 41 42 43 44 45 46 47 48 49 50
702
ASUS44 KLIX 051910
RWRLIX
NEW ORLEANS REGIONAL WEATHER ROUNDUP
NATIONAL WEATHER SERVICE NEW ORLEANS LA
100 PM CST THU MAR 05 2015

NOTE: "FAIR" INDICATES FEW OR NO CLOUDS BELOW 12,000 FEET WITH NO
      SIGNIFICANT WEATHER AND/OR OBSTRUCTIONS TO VISIBILITY.
      SKY/WX - SKY CONDITION AND SIGNIFICANT WEATHER.
      TMP - AIR TEMPERATURE.     DP    - DEWPOINT TEMPERATURE.
      RH  - RELATIVE HUMIDITY.   PRES  - PRESSURE.
      HI  - HEAT INDEX.          WCI   - WIND CHILL INDEX.

*  THESE STATIONS ARE NOT NWS OR FAA STATIONS AND ARE NOT UNDER
   NWS QUALITY CONTROL.

LAZ038-040-048-061>063-065>067-069-052000-
SOUTHEAST LOUISIANA

CITY           SKY/WX    TMP DP  RH WIND       PRES   REMARKS
N.O. AUDUBON     N/A     44  39  81 MISG        N/A
N.O. INTL ARPT CLOUDY    42  36  79 N23G33    30.25F
N.O. LAKEFRONT CLOUDY    45  38  76 N26G33    30.25F
SLIDELL        CLOUDY    41  35  79 N21       30.25S
BATON ROUGE    LGT RAIN  35  29  78 N16G23    30.36R WCI  25
BOOTHVILLE     CLOUDY    50  44  80 N21G33    30.17S
BELLE CHASSE   CLOUDY    46  36  68 N15G30    30.20F
BOGALUSA*        N/A     38  32  81 N20G26    30.31S WCI  27
GALLIANO*      CLOUDY    49  41  73 N25G37    30.20F
NEW ROADS*     MIX PCPN  32  28  85 N15G28    30.38F WCI  22
GONZALES*      CLOUDY    37  33  85 N13G28    30.31R WCI  28
HAMMOND*       DRIZZLE   36  32  87 N16G25    30.32F WCI  26
HOUMA*         CLOUDY    45  37  76 N22G29    30.23F
PORT FOURCHON* CLOUDY    48  43  81 N21G33    30.22S

$$

MSZ070-080>082-052000-
SOUTHERN MISSISSIPPI

CITY           SKY/WX    TMP DP  RH WIND       PRES   REMARKS
MCCOMB         MIX PCPN  32  28  85 N15G25    30.34S WCI  22
GULFPORT       CLOUDY    43  37  79 N18G33    30.22R
BILOXI         CLOUDY    45  39  81 N24G32    30.20S
PASCAGOULA     CLOUDY    49  38  65 N24G31    30.17F
STENNIS ARPT*  CLOUDY    43  36  75 N15G25    30.24S

$$

COASTAL OBSERVATIONS
LAKE AND NEARSHORE STATIONS

STATION/POSITION TIME  TEMP    WIND        PRES    WAVE
                       AIR SEA DIR/SP/G            HT/PER
                 (UTC) (F)     (DEG/KT/KT) (MB)    (FT/S)
PASCAGOULA       1900   47     350/ 16/ 26 1021.2
WAVELAND YACHT   1900   43 58  350/ 21/ 27 1023.2
GRAND ISLE       1900   49 66  350/ 21/ 30 1022.7
SOUTHWEST PASS   1900   53 45   10/ 27/ 30 1021.1
NEW CANAL        1900   43     360/ 23/ 28 1024.5
SHELL BEACH      1900   44 61  340/ 24/ 28 1022.7

OFFSHORE STATIONS

STATION/POSITION TIME  TEMP    WIND        PRES    WAVE
                       AIR SEA DIR/SP/G            HT/PER
                 (UTC) (F)     (DEG/KT/KT) (MB)    (FT/S)
64 S DAUPHIN ISL 1835   57 71  360/ 23/ 27 1020.1    7/ 6

$$




USA.gov is the U.S. government's official web portal to all federal, state and local government web resources and services.